EZY19YL LCLK-EGGW

Flight info

Callsign EZY19YL
Flight time N/A
Altitude 38000
Route BONEK DCT VADUS DCT EVENO UM601 EXELA UN127 LMO DCT EVIVI L863 OKANA DCT RAVAK DCT BGD DCT NIVIS DCT BABIT DCT SASAL DCT SITNI DCT RENKA DCT INBED DCT BOMBI DCT ADKUV DCT SOGRI DCT HELEN DCT KOZUF DCT IMPOH DCT SASKI L608 SUMUM Y6 TOSVA
Aircraft A320/M-SDE2E3FGHIJ1RWXYZ/LB1

Departure

Time 2026-05-05 15:48
Airport Larnaca International Airport (LCLK)

Arrival

Time N/A
Airport London Luton Airport (EGGW)
Time Latitude Longitude Altitude Speed Heading
2026-05-05 15:17 34.86948 33.61141 16 ft 0 kts 230°
2026-05-05 15:37 34.86952 33.61147 15 ft 2 kts 224°
2026-05-05 15:38 34.86967 33.61159 15 ft 3 kts 218°
2026-05-05 15:38 34.86982 33.61174 15 ft 3 kts 221°
2026-05-05 15:38 34.86997 33.61190 16 ft 3 kts 220°
2026-05-05 15:38 34.87013 33.61205 19 ft 3 kts 197°
2026-05-05 15:39 34.87025 33.61207 16 ft 2 kts 138°
2026-05-05 15:39 34.87030 33.61202 18 ft 0 kts 135°
2026-05-05 15:39 34.87030 33.61201 18 ft 0 kts 135°
2026-05-05 15:41 34.87028 33.61204 16 ft 2 kts 135°
2026-05-05 15:41 34.87002 33.61235 16 ft 8 kts 135°
2026-05-05 15:41 34.86951 33.61297 16 ft 11 kts 135°
2026-05-05 15:41 34.86894 33.61366 15 ft 12 kts 128°
2026-05-05 15:42 34.86912 33.61466 15 ft 14 kts 46°
2026-05-05 15:42 34.86987 33.61557 15 ft 16 kts 44°
2026-05-05 15:42 34.87064 33.61652 15 ft 15 kts 47°
2026-05-05 15:42 34.87137 33.61743 16 ft 14 kts 44°
2026-05-05 15:43 34.87203 33.61822 14 ft 12 kts 44°
2026-05-05 15:43 34.87261 33.61892 14 ft 13 kts 45°
2026-05-05 15:43 34.87340 33.61991 14 ft 20 kts 46°
2026-05-05 15:43 34.87441 33.62116 15 ft 21 kts 45°
2026-05-05 15:44 34.87548 33.62247 13 ft 22 kts 44°
2026-05-05 15:44 34.87660 33.62381 13 ft 23 kts 45°
2026-05-05 15:44 34.87775 33.62522 12 ft 24 kts 45°
2026-05-05 15:44 34.87893 33.62668 12 ft 24 kts 45°
2026-05-05 15:45 34.88011 33.62812 12 ft 24 kts 45°
2026-05-05 15:45 34.88133 33.62958 13 ft 25 kts 44°
2026-05-05 15:45 34.88253 33.63102 12 ft 24 kts 44°
2026-05-05 15:45 34.88373 33.63247 12 ft 22 kts 45°
2026-05-05 15:46 34.88429 33.63320 11 ft 11 kts 48°
2026-05-05 15:46 34.88437 33.63392 11 ft 9 kts 126°
2026-05-05 15:46 34.88383 33.63458 11 ft 13 kts 135°
2026-05-05 15:46 34.88304 33.63512 11 ft 14 kts 188°
2026-05-05 15:47 34.88273 33.63488 10 ft 0 kts 224°
2026-05-05 15:47 34.88196 33.63395 10 ft 48 kts 225°
2026-05-05 15:47 34.87793 33.62908 14 ft 112 kts 225°
2026-05-05 15:47 34.87112 33.62076 19 ft 162 kts 225°
2026-05-05 15:48 34.86308 33.61058 495 ft 166 kts 224°
2026-05-05 15:48 34.85506 33.60041 1146 ft 167 kts 224°
2026-05-05 15:48 34.84705 33.59043 1684 ft 168 kts 226°
2026-05-05 15:48 34.83826 33.57968 1969 ft 186 kts 224°
2026-05-05 15:49 34.82630 33.57225 2148 ft 216 kts 187°
2026-05-05 15:49 34.80980 33.57392 2289 ft 258 kts 159°
2026-05-05 15:49 34.79534 33.58671 3137 ft 261 kts 124°
2026-05-05 15:49 34.78898 33.60724 3823 ft 265 kts 89°
2026-05-05 15:50 34.79350 33.62861 4543 ft 264 kts 54°
2026-05-05 15:50 34.80727 33.64284 5263 ft 264 kts 20°
2026-05-05 15:50 34.82530 33.64530 5978 ft 265 kts 352°
2026-05-05 15:50 34.84352 33.64101 6733 ft 267 kts 342°
2026-05-05 15:51 34.85926 33.62921 7429 ft 270 kts 314°
2026-05-05 15:51 34.87126 33.61152 8174 ft 272 kts 306°
2026-05-05 15:51 34.88104 33.59168 8936 ft 275 kts 296°
2026-05-05 15:51 34.88820 33.56989 9695 ft 278 kts 293°
2026-05-05 15:52 34.89518 33.54775 10251 ft 287 kts 293°
2026-05-05 15:52 34.90246 33.52410 10393 ft 310 kts 292°
2026-05-05 15:52 34.91006 33.49879 10703 ft 324 kts 292°
2026-05-05 15:52 34.91772 33.47271 11313 ft 328 kts 292°
2026-05-05 15:53 34.92535 33.44641 11973 ft 331 kts 292°
2026-05-05 15:53 34.93303 33.41988 12648 ft 333 kts 292°